• în România
  • Lista ţărilor
  • Pe 7 zile
  • Temperatura apei
  • Hartă satelitară
  • Meteo pe hartă
  • Widget-uri
  • user-avatar
    Intrare

    Meteo pe oră la Novospasskoe

    Astăzi, 19 Iulie, Joi

    Timp Temperatura Precipitaţii Vânt Presiune Umiditate
    00:00 +19°C° 0 mm 4 m/s 732 mmHg 97%
    01:00 +19°C° 0 mm 4 m/s 732 mmHg 97%
    02:00 +19°C° 0 mm 4 m/s 732 mmHg 97%
    03:00 +19°C° 0 mm 4 m/s 732 mmHg 96%
    04:00 +19°C° 0,3 mm 4 m/s 732 mmHg 96%
    05:00 +19°C° 0,3 mm 4 m/s 732 mmHg 96%
    06:00 +19°C° 0,3 mm 3 m/s 732 mmHg 96%
    07:00 +19°C° 1 mm 4 m/s 732 mmHg 96%
    08:00 +19°C° 1 mm 4 m/s 732 mmHg 96%
    09:00 +19°C° 1 mm 4 m/s 733 mmHg 95%
    10:00 +19°C° 0,7 mm 4 m/s 733 mmHg 95%
    11:00 +20°C° 0,7 mm 4 m/s 733 mmHg 94%
    12:00 +20°C° 0,7 mm 4 m/s 733 mmHg 93%
    13:00 +21°C° 0,4 mm 4 m/s 733 mmHg 91%
    14:00 +21°C° 0,4 mm 4 m/s 733 mmHg 89%
    15:00 +22°C° 0,4 mm 4 m/s 733 mmHg 87%
    16:00 +22°C° 0,5 mm 3 m/s 733 mmHg 87%
    17:00 +22°C° 0,5 mm 3 m/s 733 mmHg 86%
    18:00 +24°C° 0,5 mm 2 m/s 733 mmHg 86%
    19:00 +23°C° 0,2 mm 2 m/s 733 mmHg 89%
    20:00 +21°C° 0,2 mm 2 m/s 733 mmHg 91%
    21:00 +21°C° 0,2 mm 1 m/s 733 mmHg 94%
    22:00 +20°C° 0,1 mm 1 m/s 733 mmHg 95%
    23:00 +20°C° 0,1 mm 1 m/s 733 mmHg 95%

    Mâine, 20 Iulie, Vineri

    Timp Temperatura Precipitaţii Vânt Presiune Umiditate
    00:00 +20°C° 0,1 mm 1 m/s 733 mmHg 96%
    01:00 +19°C° 0 mm 1 m/s 733 mmHg 96%
    02:00 +18°C° 0 mm 2 m/s 733 mmHg 97%
    03:00 +18°C° 0 mm 2 m/s 733 mmHg 97%
    04:00 +18°C° 0 mm 2 m/s 733 mmHg 97%
    05:00 +19°C° 0 mm 2 m/s 733 mmHg 97%
    06:00 +19°C° 0 mm 2 m/s 733 mmHg 97%
    07:00 +20°C° 0 mm 2 m/s 734 mmHg 94%
    08:00 +21°C° 0 mm 2 m/s 734 mmHg 91%
    09:00 +22°C° 0 mm 3 m/s 734 mmHg 88%
    10:00 +24°C° 0,4 mm 3 m/s 734 mmHg 84%
    11:00 +25°C° 0,4 mm 3 m/s 734 mmHg 81%
    12:00 +26°C° 0,4 mm 3 m/s 734 mmHg 77%
    13:00 +26°C° 1,3 mm 3 m/s 734 mmHg 76%
    14:00 +27°C° 1,3 mm 3 m/s 734 mmHg 75%
    15:00 +27°C° 1,3 mm 3 m/s 734 mmHg 74%
    16:00 +27°C° 0,3 mm 3 m/s 734 mmHg 77%
    17:00 +27°C° 0,3 mm 3 m/s 734 mmHg 79%
    18:00 +26°C° 0,3 mm 2 m/s 734 mmHg 81%
    19:00 +25°C° 0,1 mm 2 m/s 734 mmHg 85%
    20:00 +24°C° 0,1 mm 2 m/s 734 mmHg 88%
    21:00 +23°C° 0,1 mm 2 m/s 735 mmHg 92%
    22:00 +21°C° 0 mm 2 m/s 735 mmHg 93%
    23:00 +21°C° 0 mm 2 m/s 735 mmHg 93%

    Poimâine, 21 Iulie, Sâmbătă

    Timp Temperatura Precipitaţii Vânt Presiune Umiditate
    00:00 +20°C° 0 mm 2 m/s 735 mmHg 94%
    01:00 +20°C° 0 mm 2 m/s 735 mmHg 95%
    02:00 +20°C° 0 mm 2 m/s 735 mmHg 95%
    03:00 +19°C° 0 mm 2 m/s 735 mmHg 95%
    04:00 +20°C° 0 mm 2 m/s 735 mmHg 95%
    05:00 +20°C° 0 mm 2 m/s 735 mmHg 95%
    06:00 +20°C° 0 mm 2 m/s 735 mmHg 94%
    07:00 +21°C° 0 mm 2 m/s 736 mmHg 90%
    08:00 +24°C° 0 mm 2 m/s 736 mmHg 86%
    09:00 +25°C° 0 mm 3 m/s 736 mmHg 82%
    10:00 +26°C° 0,2 mm 3 m/s 736 mmHg 78%
    11:00 +27°C° 0,2 mm 3 m/s 736 mmHg 74%
    12:00 +28°C° 0,2 mm 3 m/s 736 mmHg 70%
    13:00 +28°C° 0,8 mm 3 m/s 736 mmHg 70%
    14:00 +28°C° 0,8 mm 3 m/s 736 mmHg 70%
    15:00 +29°C° 0,8 mm 3 m/s 736 mmHg 70%
    16:00 +28°C° 0,3 mm 3 m/s 735 mmHg 72%
    17:00 +28°C° 0,3 mm 2 m/s 735 mmHg 74%
    18:00 +28°C° 0,3 mm 2 m/s 735 mmHg 76%
    19:00 +27°C° 0,1 mm 2 m/s 735 mmHg 80%
    20:00 +25°C° 0,1 mm 2 m/s 736 mmHg 85%
    21:00 +24°C° 0,1 mm 2 m/s 736 mmHg 89%
    22:00 +23°C° 0 mm 2 m/s 736 mmHg 90%
    23:00 +23°C° 0 mm 2 m/s 735 mmHg 91%

    22 Iulie, Duminică

    Timp Temperatura Precipitaţii Vânt Presiune Umiditate
    00:00 +21°C° 0 mm 2 m/s 735 mmHg 92%
    01:00 +21°C° 0 mm 2 m/s 735 mmHg 93%
    02:00 +20°C° 0 mm 2 m/s 735 mmHg 94%
    03:00 +20°C° 0 mm 2 m/s 735 mmHg 94%
    04:00 +20°C° 0 mm 2 m/s 735 mmHg 94%
    05:00 +20°C° 0 mm 2 m/s 735 mmHg 94%
    06:00 +21°C° 0 mm 2 m/s 735 mmHg 94%
    07:00 +23°C° 0,1 mm 2 m/s 735 mmHg 89%
    08:00 +24°C° 0,1 mm 2 m/s 736 mmHg 85%
    09:00 +26°C° 0,1 mm 2 m/s 736 mmHg 80%
    10:00 +27°C° 0,2 mm 2 m/s 736 mmHg 77%
    11:00 +27°C° 0,2 mm 3 m/s 736 mmHg 73%
    12:00 +28°C° 0,2 mm 3 m/s 735 mmHg 69%
    13:00 +28°C° 1,4 mm 3 m/s 735 mmHg 70%
    14:00 +29°C° 1,4 mm 3 m/s 735 mmHg 70%
    15:00 +29°C° 1,4 mm 3 m/s 735 mmHg 70%
    16:00 +28°C° 1,8 mm 3 m/s 735 mmHg 73%
    17:00 +28°C° 1,8 mm 2 m/s 735 mmHg 76%
    18:00 +27°C° 1,8 mm 2 m/s 735 mmHg 79%
    19:00 +26°C° 0,5 mm 2 m/s 735 mmHg 82%
    20:00 +25°C° 0,5 mm 1 m/s 735 mmHg 85%
    21:00 +24°C° 0,5 mm 1 m/s 735 mmHg 88%
    22:00 +23°C° 0 mm 1 m/s 735 mmHg 89%
    23:00 +23°C° 0 mm 2 m/s 735 mmHg 91%

    23 Iulie, Luni

    Timp Temperatura Precipitaţii Vânt Presiune Umiditate
    00:00 +21°C° 0 mm 2 m/s 735 mmHg 93%
    01:00 +21°C° 0 mm 2 m/s 735 mmHg 93%
    02:00 +21°C° 0 mm 1 m/s 735 mmHg 94%
    03:00 +21°C° 0 mm 1 m/s 735 mmHg 94%
    04:00 +21°C° 0,1 mm 1 m/s 735 mmHg 94%
    05:00 +21°C° 0,1 mm 1 m/s 735 mmHg 94%
    06:00 +22°C° 0,1 mm 1 m/s 736 mmHg 94%
    07:00 +23°C° 0,1 mm 1 m/s 736 mmHg 91%
    08:00 +23°C° 0,1 mm 2 m/s 736 mmHg 88%
    09:00 +24°C° 0,1 mm 2 m/s 736 mmHg 86%
    10:00 +25°C° 0,5 mm 2 m/s 736 mmHg 82%
    11:00 +26°C° 0,5 mm 2 m/s 736 mmHg 79%
    12:00 +27°C° 0,5 mm 3 m/s 736 mmHg 76%
    13:00 +27°C° 0,8 mm 2 m/s 736 mmHg 76%
    14:00 +27°C° 0,8 mm 2 m/s 736 mmHg 76%
    15:00 +27°C° 0,8 mm 2 m/s 736 mmHg 76%
    16:00 +27°C° 0,3 mm 2 m/s 736 mmHg 77%
    17:00 +27°C° 0,3 mm 1 m/s 736 mmHg 78%
    18:00 +27°C° 0,3 mm 1 m/s 736 mmHg 79%
    19:00 +25°C° 0,4 mm 1 m/s 736 mmHg 83%
    20:00 +24°C° 0,4 mm 1 m/s 737 mmHg 86%
    21:00 +23°C° 0,4 mm 1 m/s 737 mmHg 89%
    22:00 +23°C° 0,3 mm 1 m/s 737 mmHg 91%
    23:00 +22°C° 0,3 mm 1 m/s 737 mmHg 92%

    24 Iulie, Marţi

    Timp Temperatura Precipitaţii Vânt Presiune Umiditate
    00:00 +22°C° 0,3 mm 1 m/s 737 mmHg 93%
    01:00 +21°C° 0 mm 1 m/s 737 mmHg 94%
    02:00 +21°C° 0 mm 1 m/s 737 mmHg 94%
    03:00 +21°C° 0 mm 1 m/s 737 mmHg 94%
    04:00 +21°C° 0 mm 1 m/s 738 mmHg 94%
    05:00 +21°C° 0 mm 1 m/s 738 mmHg 94%
    06:00 +22°C° 0 mm 1 m/s 738 mmHg 94%
    07:00 +23°C° 0 mm 1 m/s 738 mmHg 90%
    08:00 +24°C° 0 mm 1 m/s 738 mmHg 85%
    09:00 +25°C° 0 mm 2 m/s 738 mmHg 81%
    10:00 +26°C° 0,1 mm 2 m/s 739 mmHg 77%
    11:00 +27°C° 0,1 mm 2 m/s 739 mmHg 73%
    12:00 +28°C° 0,1 mm 2 m/s 739 mmHg 69%
    13:00 +28°C° 0,1 mm 1 m/s 739 mmHg 68%
    14:00 +29°C° 0,1 mm 1 m/s 739 mmHg 66%
    15:00 +29°C° 0,1 mm 1 m/s 739 mmHg 65%
    16:00 +29°C° 0,6 mm 1 m/s 739 mmHg 69%
    17:00 +28°C° 0,6 mm 1 m/s 739 mmHg 72%
    18:00 +28°C° 0,6 mm 2 m/s 739 mmHg 76%
    19:00 +26°C° 0,5 mm 2 m/s 739 mmHg 80%
    20:00 +25°C° 0,5 mm 2 m/s 739 mmHg 85%
    21:00 +22°C° 0,5 mm 3 m/s 739 mmHg 89%
    22:00 +22°C° 0,1 mm 3 m/s 739 mmHg 91%
    23:00 +21°C° 0,1 mm 3 m/s 739 mmHg 92%
    Arată mai mult